User: anonymous
Location: Unspecified
(0.0000°N, 0.0000°E)
Time: 03:03:00
(UTC+02:00)
Language:

Meteor 1-31 Rocket - Orbit

View from above orbital plane
View from above orbital plane
View from above satellite
View from above satellite

Ground track
Ground track

The orbit data is extracted from the following two-line orbital elements,

1 12586U 81065B   14237.75417888  .00002288  00000-0  15900-3 0  4507
2 12586 097.4079 233.9325 0022424 122.8745 237.4645 15.06284723801738
Epoch (UTC): 25 August 2014 18:06:01
Eccentricity: 0.0022424
inclination: 97.4079°
perigee height: 532 km
apogee height: 563 km
right ascension of ascending node: 233.9325°
argument of perigee: 122.8745°
revolutions per day: 15.06284723
mean anomaly at epoch: 237.4645°
orbit number at epoch: 80173

The dashed part of the orbit path shows where the satellite is in the earth's shadow,  

DLR